Leadville, CO

5:23 AM MDT on October 20, 2017 (GMT -0600)
Lake County

Weather History for KLXV - October, 2012

Change the Weather History Date:

Sunday, October 28, 2012

  Actual Average Record
Temperature  
Mean Temperature 36 °F -  
Max Temperature 43 °F 45 °F 58 °F (1990)
Min Temperature 28 °F 20 °F 1 °F (1976)
Degree Days  
Heating Degree Days 29 33  
Month to date heating degree days 771 790  
Since 1 July heating degree days 1877 2088  
Cooling Degree Days 0 0  
Month to date cooling degree days 0 0  
Year to date cooling degree days 0 0  
Moisture  
Dew Point 19 °F    
Average Humidity 59    
Maximum Humidity 75    
Minimum Humidity 43    
Precipitation  
Precipitation 0.00 in 0.03 in 0.27 in (1991)
Month to date precipitation 0.75 0.82  
Year to date precipitation 10.14 10.85  
Sea Level Pressure  
Sea Level Pressure 30.05 in    
Wind  
Wind Speed 11 mph (NNW)    
Max Wind Speed 25 mph    
Max Gust Speed 35 mph    
Visibility 10 miles    
Events      
T = Trace of Precipitation, MM = Missing Value Source: NWS Daily Summary

Daily Weather History Graph

Daily Weather History Graph

Search for Another Location

Airport or City:

Trip Planner

Search our weather history database for the weather conditions in past years. The results will help you decide how hot, cold, wet, or windy it might be!

Date:

Astronomy

Oct. 28, 2012 Rise Set
Actual Time 7:29 AM MDT 6:08 PM MDT
Civil Twilight 7:01 AM MDT 6:35 PM MDT
Nautical Twilight 6:30 AM MDT 7:07 PM MDT
Astronomical Twilight 5:59 AM MDT 7:38 PM MDT
Moon 5:27 PM MDT (10/28) 6:25 AM MDT (10/28)
Length of Visible Light 11h 34m
Length of Day
10h 39m
Waxing Gibbous, 99% of the Moon is Illuminated
Oct 28
Waxing Gibbous
Oct 29
Full
Nov 6
Last Quarter
Nov 13
New
Nov 20
First Quarter

Hourly Weather History & Observations

Time (MDT) Temp. Windchill Dew Point Humidity Pressure Visibility Wind Dir Wind Speed Gust Speed Precip Events Conditions
12:53 AM 28.9 °F 19.8 °F 10.0 °F 45% 30.07 in 10.0 mi North 10.4 mph - N/A   Mostly Cloudy
1:53 AM 30.0 °F 19.1 °F 12.0 °F 47% 30.05 in 10.0 mi North 15.0 mph 24.2 mph N/A   Overcast
2:53 AM 30.9 °F 19.8 °F 14.0 °F 50% 30.03 in 10.0 mi NNE 16.1 mph 21.9 mph N/A   Overcast
3:53 AM 30.9 °F 20.2 °F 16.0 °F 54% 30.03 in 10.0 mi North 15.0 mph - N/A   Overcast
4:53 AM 32.0 °F 23.0 °F 17.1 °F 54% 30.03 in 10.0 mi North 11.5 mph 21.9 mph N/A   Overcast
5:53 AM 32.0 °F 23.0 °F 17.1 °F 54% 30.07 in 10.0 mi North 11.5 mph 18.4 mph N/A   Overcast
6:53 AM 30.9 °F 23.5 °F 17.1 °F 57% 30.09 in 10.0 mi NW 8.1 mph - N/A   Overcast
7:53 AM 30.0 °F 19.1 °F 16.0 °F 56% 30.11 in 10.0 mi NW 15.0 mph 20.7 mph N/A   Clear
8:53 AM 32.0 °F 20.1 °F 16.0 °F 52% 30.07 in 10.0 mi NNW 19.6 mph 27.6 mph N/A   Clear
9:53 AM 36.0 °F 31.1 °F 18.0 °F 48% 30.04 in 10.0 mi Variable 5.8 mph 16.1 mph N/A   Partly Cloudy
10:53 AM 37.9 °F 28.2 °F 21.0 °F 51% 30.04 in 10.0 mi WNW 18.4 mph 29.9 mph N/A   Partly Cloudy
11:53 AM 37.9 °F 28.9 °F 21.0 °F 51% 30.04 in 10.0 mi NW 16.1 mph 26.5 mph N/A   Overcast
12:53 PM 39.9 °F 32.1 °F 21.9 °F 49% 30.02 in 10.0 mi NW 13.8 mph 32.2 mph N/A   Mostly Cloudy
1:53 PM 41.0 °F 31.6 °F 23.0 °F 49% 29.99 in 10.0 mi NW 20.7 mph 29.9 mph N/A   Clear
2:53 PM 41.0 °F 32.5 °F 21.9 °F 47% 29.99 in 10.0 mi NW 17.3 mph 24.2 mph N/A   Clear
3:53 PM 43.0 °F 35.7 °F 23.0 °F 45% 29.99 in 10.0 mi WNW 15.0 mph 25.3 mph N/A   Partly Cloudy
4:53 PM 43.0 °F 36.4 °F 21.9 °F 43% 29.96 in 10.0 mi NNW 12.7 mph 23.0 mph N/A   Partly Cloudy
5:53 PM 39.0 °F 31.0 °F 21.9 °F 50% 30.01 in 10.0 mi NNW 13.8 mph 21.9 mph N/A   Clear
6:53 PM 37.0 °F 29.3 °F 21.9 °F 54% 30.05 in 10.0 mi NW 11.5 mph 20.7 mph N/A   Clear
7:53 PM 35.1 °F 31.0 °F 21.9 °F 59% 30.09 in 10.0 mi ESE 4.6 mph - N/A   Clear
8:53 PM 32.0 °F 27.5 °F 21.0 °F 64% 30.10 in 10.0 mi SSW 4.6 mph - N/A   Partly Cloudy
9:53 PM 28.9 °F - 21.0 °F 72% 30.11 in 10.0 mi Calm Calm - N/A   Clear
10:53 PM 28.9 °F - 21.0 °F 72% 30.11 in 10.0 mi Calm Calm - N/A   Clear
11:53 PM 32.0 °F - 21.0 °F 64% 30.10 in 10.0 mi Calm Calm - N/A   Partly Cloudy